FW7513 Weather Reports


time (UTC)temp
C
wind
direction
speed
KPH
gust
KPH
rain 1hr
cm
rain 24hr
cm
rain mn
cm
humidity
%
barometer
mb
20260503190425 16 148 3.2 3.2 0.00 0.00 0.00 40 1016.8
20260503185921 17 200 1.6 3.2 0.00 0.00 0.00 40 1017.1
20260503185418 16 221 4.8 4.8 0.00 0.00 0.00 38 1016.9
20260503184917 17 322 4.8 8.0 0.00 0.00 0.00 40 1017.2
20260503184414 17 136 1.6 3.2 0.00 0.00 0.00 39 1017.0
20260503183910 16 248 8.0 11.3 0.00 0.00 0.00 42 1017.4
20260503183407 16 160 3.2 3.2 0.00 0.00 0.00 39 1017.3
20260503182904 16 327 3.2 3.2 0.00 0.00 0.00 41 1017.5
20260503182403 16 122 1.6 1.6 0.00 0.00 0.00 40 1017.3
20260503181859 16 113 1.6 1.6 0.00 0.00 0.00 41 1017.4
20260503181356 16 222 3.2 3.2 0.00 0.00 0.00 43 1017.7
20260503180853 16 219 4.8 4.8 0.00 0.00 0.00 41 1017.7
20260503180351 16 160 3.2 3.2 0.00 0.00 0.00 38 1017.8
20260503175847 17 131 1.6 3.2 0.00 0.00 0.00 43 1017.8
20260503175345 16 176 3.2 3.2 0.00 0.00 0.00 40 1017.9
20260503174841 17 22 3.2 4.8 0.00 0.00 0.00 36 1017.9
20260503174339 16 117 0.0 1.6 0.00 0.00 0.00 41 1017.8
20260503173834 16 216 4.8 8.0 0.00 0.00 0.00 38 1018.1
20260503173331 16 53 1.6 3.2 0.00 0.00 0.00 38 1018.0
20260503172827 16 218 4.8 4.8 0.00 0.00 0.00 43 1018.3
20260503172325 16 188 3.2 4.8 0.00 0.00 0.00 43 1018.3
20260503171821 16 81 3.2 3.2 0.00 0.00 0.00 36 1018.4
20260503171318 16 314 8.0 9.7 0.00 0.00 0.00 40 1018.6
20260503170815 16 93 4.8 4.8 0.00 0.00 0.00 41 1018.7
20260503170312 16 11 4.8 8.0 0.00 0.00 0.00 37 1018.9
20260503150704 12 270 4.8 8.0 0.00 0.00 0.00 52 1019.9
20260503150200 12 121 1.6 3.2 0.00 0.00 0.00 50 1019.8
20260503140124 11 202 3.2 3.2 0.00 0.00 0.00 52 1020.0
20260503131054 8 8 3.2 4.8 0.00 0.00 0.00 58 1019.9
20260503130551 8 101 1.6 3.2 0.00 0.00 0.00 59 1019.8
20260503110442 2 77 1.6 1.6 0.00 0.00 0.00 76 1019.1
20260503090327 2 78 0.0 0.0 0.00 0.00 0.00 80 1018.8
20260503081254 2 78 0.0 0.0 0.00 0.00 0.00 79 1018.6
20260503080750 2 78 0.0 0.0 0.00 0.00 0.00 79 1018.7
20260503080248 2 78 0.0 0.0 0.00 0.00 0.00 79 1018.6
20260503072724 2 78 0.0 0.0 0.00 0.00 0.00 78 1018.4
20260503072221 2 78 0.0 0.0 0.00 0.00 0.00 78 1018.6
20260503071717 2 78 0.0 0.0 0.00 0.00 0.00 78 1018.3
20260503071214 2 78 0.0 0.0 0.00 0.00 0.00 78 1018.6
20260503070711 2 78 0.0 0.0 0.00 0.00 0.00 78 1018.9
20260503070209 2 78 0.0 0.0 0.00 0.00 0.00 78 1018.5
20260503060133 3 78 0.0 0.0 0.00 0.00 0.00 73 1018.9
20260503055125 2 78 0.0 0.0 0.00 0.00 0.00 73 1019.0
20260503054621 2 78 0.0 0.0 0.00 0.00 0.00 73 1019.1
20260503054118 2 78 0.0 0.0 0.00 0.00 0.00 74 1019.0
20260503053616 2 78 0.0 0.0 0.00 0.00 0.00 73 1018.9
20260503053114 3 78 0.0 0.0 0.00 0.00 0.00 73 1019.0
20260503052610 3 78 0.0 0.0 0.00 0.00 0.00 72 1018.9
20260503052107 3 78 0.0 0.0 0.00 0.00 0.00 72 1019.0
20260503051602 2 78 0.0 0.0 0.00 0.00 0.00 72 1019.0
20260503051100 3 78 0.0 0.0 0.00 0.00 0.00 73 1018.8
20260503050555 2 78 0.0 0.0 0.00 0.00 0.00 73 1018.7
20260503050053 2 78 0.0 0.0 0.00 0.00 0.00 72 1018.9
20260503045550 3 78 0.0 0.0 0.00 0.00 0.00 72 1018.9
20260503045047 3 78 0.0 0.0 0.00 0.00 0.00 71 1018.9
20260503044544 3 78 0.0 0.0 0.00 0.00 0.00 70 1018.9
20260503044042 3 78 0.0 0.0 0.00 0.00 0.00 70 1018.7
20260503043538 3 78 0.0 0.0 0.00 0.00 0.00 70 1018.8
20260503043034 3 78 0.0 0.0 0.00 0.00 0.00 71 1019.0
20260503042531 3 78 0.0 0.0 0.00 0.00 0.00 71 1018.9
20260503042027 3 78 0.0 0.0 0.00 0.00 0.00 71 1018.9
20260503041524 3 78 0.0 0.0 0.00 0.00 0.00 71 1018.9
20260503041022 3 78 0.0 0.0 0.00 0.00 0.00 72 1019.1
20260503040519 3 78 0.0 0.0 0.00 0.00 0.00 72 1019.1
20260503040017 3 78 0.0 0.0 0.00 0.00 0.00 73 1018.8
20260503035513 3 78 0.0 0.0 0.00 0.00 0.00 73 1018.9
20260503035011 3 78 0.0 0.0 0.00 0.00 0.00 73 1018.8
20260503034508 3 78 0.0 0.0 0.00 0.00 0.00 73 1019.1
20260503034005 3 78 0.0 0.0 0.00 0.00 0.00 73 1018.9
20260503033502 3 78 0.0 0.0 0.00 0.00 0.00 72 1019.0
20260503033000 3 78 0.0 0.0 0.00 0.00 0.00 72 1018.9
20260503032458 3 78 0.0 0.0 0.00 0.00 0.00 70 1019.1
20260503031955 3 78 0.0 0.0 0.00 0.00 0.00 69 1019.0
20260503031454 4 78 0.0 0.0 0.00 0.00 0.00 68 1019.1
20260503030950 5 78 0.0 0.0 0.00 0.00 0.00 68 1019.0
20260503030446 5 78 0.0 0.0 0.00 0.00 0.00 67 1019.1
20260503025943 5 78 0.0 0.0 0.00 0.00 0.00 65 1019.0
20260503025440 5 78 0.0 0.0 0.00 0.00 0.00 65 1019.0
20260503024938 5 78 0.0 0.0 0.00 0.00 0.00 64 1019.0
20260503024434 5 78 0.0 0.0 0.00 0.00 0.00 63 1018.8
20260503023931 5 78 0.0 0.0 0.00 0.00 0.00 63 1019.1
20260503023428 5 78 0.0 0.0 0.00 0.00 0.00 63 1019.1
20260503022925 5 78 0.0 0.0 0.00 0.00 0.00 63 1019.1
20260503022420 5 78 0.0 0.0 0.00 0.00 0.00 63 1019.0
20260503021916 5 78 0.0 0.0 0.00 0.00 0.00 64 1018.7
20260503021412 5 78 0.0 0.0 0.00 0.00 0.00 63 1019.0
20260503020910 5 78 0.0 0.0 0.00 0.00 0.00 62 1018.8
20260503020408 5 78 0.0 0.0 0.00 0.00 0.00 63 1018.7
20260503015903 5 78 0.0 0.0 0.00 0.00 0.00 63 1018.9
20260503015401 5 78 0.0 0.0 0.00 0.00 0.00 62 1018.6
20260503014856 5 78 0.0 0.0 0.00 0.00 0.00 62 1018.7
20260503014354 5 78 0.0 0.0 0.00 0.00 0.00 61 1018.6
20260503013852 6 78 0.0 0.0 0.00 0.00 0.00 61 1018.6
20260503013348 6 78 0.0 0.0 0.00 0.00 0.00 60 1018.7
20260503012846 6 78 0.0 0.0 0.00 0.00 0.00 59 1018.4
20260503012343 6 78 0.0 0.0 0.00 0.00 0.00 57 1018.3
20260503011839 7 78 0.0 0.0 0.00 0.00 0.00 56 1018.4
20260503011331 7 78 0.0 0.0 0.00 0.00 0.00 55 1018.3
20260503010827 7 78 0.0 0.0 0.00 0.00 0.00 54 1018.3
20260503010325 7 78 0.0 0.0 0.00 0.00 0.00 53 1018.1
20260503005821 7 78 0.0 0.0 0.00 0.00 0.00 53 1018.1
20260503005319 7 79 0.0 0.0 0.00 0.00 0.00 53 1018.0
20260503004815 7 78 0.0 1.6 0.00 0.00 0.00 52 1018.1
20260503004313 7 79 0.0 0.0 0.00 0.00 0.00 53 1018.0
20260503003810 8 81 0.0 0.0 0.00 0.00 0.00 53 1017.9
20260503003307 8 79 0.0 0.0 0.00 0.00 0.00 50 1017.7
20260503002804 8 81 0.0 1.6 0.00 0.00 0.00 49 1017.9
20260503002301 8 69 1.6 1.6 0.00 0.00 0.00 48 1017.9
20260503001756 8 67 3.2 3.2 0.00 0.00 0.00 49 1017.9
20260503001253 9 30 3.2 4.8 0.00 0.00 0.00 48 1017.7
20260503000751 9 22 3.2 4.8 0.00 0.00 0.00 47 1017.7
20260503000248 9 79 1.6 1.6 0.00 0.00 0.00 48 1017.8
20260502235745 10 73 0.0 1.6 0.00 0.00 0.00 46 1017.6
20260502235243 10 63 0.0 1.6 0.00 0.00 0.00 45 1017.6
20260502234739 10 48 4.8 8.0 0.00 0.00 0.00 44 1017.5
20260502234236 10 60 3.2 3.2 0.00 0.00 0.00 43 1017.4
20260502233732 10 34 8.0 9.7 0.00 0.00 0.00 42 1017.6
20260502233229 10 42 3.2 4.8 0.00 0.00 0.00 44 1017.5
20260502232725 10 57 4.8 9.7 0.00 0.00 0.00 44 1017.4
20260502232222 10 91 1.6 3.2 0.00 0.00 0.00 46 1017.6
20260502231719 10 4 6.4 8.0 0.00 0.00 0.00 45 1017.6
20260502231217 10 104 1.6 1.6 0.00 0.00 0.00 47 1017.5
20260502230715 10 33 4.8 4.8 0.00 0.00 0.00 44 1017.3
20260502230213 10 67 3.2 3.2 0.00 0.00 0.00 42 1017.2
20260502225708 10 65 3.2 3.2 0.00 0.00 0.00 46 1017.3
20260502225206 10 45 3.2 4.8 0.00 0.00 0.00 43 1017.2
20260502224702 11 46 1.6 3.2 0.00 0.00 0.00 45 1017.4
20260502224159 11 45 8.0 9.7 0.00 0.00 0.00 39 1017.2
20260502223657 11 64 4.8 8.0 0.00 0.00 0.00 40 1017.2
20260502223155 11 92 1.6 1.6 0.00 0.00 0.00 40 1017.1
20260502222652 11 93 0.0 1.6 0.00 0.00 0.00 46 1017.0
20260502222149 11 76 1.6 1.6 0.00 0.00 0.00 45 1017.2
20260502221644 11 67 6.4 9.7 0.00 0.00 0.00 42 1017.0
20260502221142 11 61 4.8 9.7 0.00 0.00 0.00 41 1017.1
20260502220638 11 49 1.6 3.2 0.00 0.00 0.00 41 1017.0
20260502220134 11 91 4.8 4.8 0.00 0.00 0.00 41 1017.2
20260502215631 11 72 1.6 3.2 0.00 0.00 0.00 46 1017.2
20260502215128 11 167 4.8 4.8 0.00 0.00 0.00 43 1017.2
20260502214625 11 74 0.0 1.6 0.00 0.00 0.00 42 1017.2
20260502214122 11 65 1.6 1.6 0.00 0.00 0.00 44 1017.2
20260502213620 11 332 3.2 3.2 0.00 0.00 0.00 39 1017.1
20260502213117 11 32 3.2 4.8 0.00 0.00 0.00 43 1017.2
20260502212615 12 5 9.7 14.5 0.00 0.00 0.00 37 1017.0
20260502212114 11 36 4.8 4.8 0.00 0.00 0.00 42 1017.0
20260502211608 11 67 1.6 3.2 0.00 0.00 0.00 43 1016.8
20260502211106 11 246 8.0 9.7 0.00 0.00 0.00 42 1016.9
20260502210603 12 37 6.4 9.7 0.00 0.00 0.00 43 1016.8
20260502210100 12 49 8.0 9.7 0.00 0.00 0.00 36 1016.8
20260502205556 11 48 1.6 3.2 0.00 0.00 0.00 39 1016.8
20260502205054 11 71 1.6 1.6 0.00 0.00 0.00 41 1017.0
20260502204550 12 34 6.4 12.9 0.00 0.00 0.00 38 1016.8
20260502204048 13 355 3.2 8.0 0.00 0.00 0.00 40 1017.1
20260502203545 12 52 6.4 9.7 0.00 0.00 0.00 40 1016.8
20260502203042 11 294 4.8 4.8 0.00 0.00 0.00 41 1016.9
20260502202537 12 182 1.6 3.2 0.00 0.00 0.00 38 1017.0
20260502202036 13 11 4.8 8.0 0.00 0.00 0.00 39 1016.9
20260502201532 12 321 4.8 8.0 0.00 0.00 0.00 42 1017.1
20260502201029 12 45 4.8 9.7 0.00 0.00 0.00 39 1017.2
20260502200524 13 70 4.8 4.8 0.00 0.00 0.00 38 1017.1
20260502200022 13 100 1.6 3.2 0.00 0.00 0.00 44 1017.3
20260502195520 14 78 3.2 4.8 0.00 0.00 0.00 36 1017.4
20260502195015 13 196 4.8 8.0 0.00 0.00 0.00 36 1017.5
20260502194513 13 199 4.8 4.8 0.00 0.00 0.00 39 1017.2
20260502194008 12 84 1.6 1.6 0.00 0.00 0.00 40 1017.3
20260502193506 13 270 4.8 4.8 0.00 0.00 0.00 41 1017.3
20260502193002 13 317 8.0 11.3 0.00 0.00 0.00 39 1017.2
20260502192458 13 70 3.2 4.8 0.00 0.00 0.00 39 1017.4
20260502191955 13 270 8.0 11.3 0.00 0.00 0.00 42 1017.1
20260502191453 12 111 3.2 8.0 0.00 0.00 0.00 41 1017.5
20260502190950 13 76 1.6 3.2 0.00 0.00 0.00 42 1017.6
20260502190448 13 7 6.4 8.0 0.00 0.00 0.00 39 1017.2